Location: Cruquius
(52.3348°N, 4.6319°E)
Time: 21:49:46
(UTC+00:00)

Cosmos 2242 Rocket - Pass Details

Date: 01 October 2021
Orbit: 618 x 651 km, 82.5° (Epoch: 23 October)

Event Time Altitude Azimuth Distance (km) Brightness Sun altitude
Rises 04:18:13 0° 160° (SSE) 2,955 7.1 -13.6°
Reaches altitude 10° 04:20:40 10° 149° (SSE) 2,053 6.5 -13.3°
Maximum altitude 04:24:38 30° 89° (E) 1,172 5.8 -12.7°
Drops below altitude 10° 04:28:37 10° 29° (NNE) 2,071 6.8 -12.1°
Sets 04:31:05 0° 19° (NNE) 2,986 7.5 -11.7°
